This demonstration page uses our WeatherBlox Daily Observations layout. Learn more.

41.55636, -103.73856

Hourly Observations for May 14, 2015

Temp ( °F °C ) Dew Point ( °F °C ) Humidity (%) Winds ( mph kmh ) Pressure ( in mb ) Visibility ( mi km ) Precip ( " mm )
12:07 am 00:07 Mostly Cloudy with Mist and Fog 49 9.4 47 8.3 93 93 Calm 29.91 1013 2.5 4.02335 0 0
12:11 am 00:11 Mostly Cloudy with Mist and Fog 49 9.4 47 8.3 93 93 Calm 29.91 1013 1.25 2.011675 0 0
12:20 am 00:20 Mostly Cloudy with Mist and Fog 48 9 46 8 94 94 Calm 29.91 1013 0.75 1.207005 0 0
12:36 am 00:36 Mostly Cloudy with Fog 46 8 46 8 100 100 ENE 3 6 29.91 1013 0.25 0.402335 0 0
12:53 am 00:53 Mostly Cloudy with Fog 46 7.8 45 7.2 96 96 Calm 29.88 1012 0.25 0.402335 0 0
1:06 am 01:06 Mostly Cloudy with Fog 46 7.8 44 6.7 93 93 Calm 29.91 1013 0.5 0.80467 0 0
1:23 am 01:23 Mostly Cloudy with Fog 45 7.2 44 6.7 97 97 Calm 29.94 1014 0.25 0.402335 0 0
1:51 am 01:51 Mostly Cloudy with Mist and Fog 46 8 45 7 93 93 WNW 5 7 29.91 1013 1 1.60934 0 0
1:53 am 01:53 Partly Cloudy with Mist and Fog 44 6.7 44 6.7 100 100 WNW 5 7 29.88 1012 1.25 2.011675 0 0
1:56 am 01:56 Mostly Cloudy with Mist and Fog 43 6.1 42 5.6 97 97 WNW 5 7 29.94 1014 0.75 1.207005 0 0
2:12 am 02:12 Clear with Mist and Fog 43 6 43 6 100 100 N 3 6 29.94 1014 1 1.60934 0 0
2:17 am 02:17 Mostly Cloudy with Mist and Fog 42 5.6 41 5 96 96 NNE 5 7 29.94 1014 0.75 1.207005 0 0
2:37 am 02:37 Mostly Cloudy with Fog 43 6 41 5 93 93 NW 5 7 29.94 1014 0.5 0.80467 0 0
2:47 am 02:47 Mostly Clear with Mist and Fog 43 6 41 5 93 93 W 6 9 29.94 1014 1.5 2.41401 0 0
2:49 am 02:49 Mostly Clear with Mist and Fog 43 6 41 5 93 93 WNW 6 9 29.94 1014 3 4.82802 0 0
2:53 am 02:53 Mostly Clear 43 6.1 42 5.6 97 97 NW 6 9 29.86 1011 7 11.26538 0 0
3:53 am 03:53 Clear 41 5 40 4.4 96 96 WNW 5 7 29.87 1011 7 11.26538 0 0
4:10 am 04:10 Mostly Clear with Mist and Fog 41 5 39 4 93 93 W 5 7 29.97 1015 2.5 4.02335 0 0
4:30 am 04:30 Clear with Mist and Fog 41 5 39 4 93 93 WNW 6 9 29.97 1015 1.5 2.41401 0 0
4:37 am 04:37 Mostly Cloudy with Mist and Fog 40 4.4 39 3.9 97 97 NW 5 7 29.97 1015 0.75 1.207005 0 0
4:48 am 04:48 Mostly Cloudy with Fog 39 4 39 4 100 100 Calm 29.97 1015 0.5 0.80467 0 0
4:53 am 04:53 Mostly Cloudy with Mist and Fog 39 3.9 39 3.9 100 100 Calm 29.87 1012 0.75 1.207005 0 0
5:15 am 05:15 Mostly Cloudy with Fog 39 3.9 38 3.3 96 96 W 6 9 29.97 1015 0.25 0.402335 0 0
5:22 am 05:22 Mostly Cloudy with Fog 39 4 39 4 100 100 W 6 9 29.97 1015 0.5 0.80467 0 0
5:35 am 05:35 Mostly Cloudy with Mist and Fog 40 4.4 39 3.9 97 97 NW 7 11 29.97 1015 2 3.21868 0 0
5:38 am 05:38 Partly Cloudy with Mist and Fog 40 4.4 39 3.9 97 97 NW 8 13 29.97 1015 3 4.82802 0 0
5:53 am 05:53 Sunny with Mist and Fog 41 5 40 4.4 96 96 NW 7 11 29.89 1012 5 8.0467 0 0
6:53 am 06:53 Sunny 46 7.8 45 7.2 96 96 NW 7 11 29.9 1013 10 16.0934 0 0
7:53 am 07:53 Sunny 50 10 45 7.2 83 83 WNW 6 9 29.9 1013 10 16.0934 0 0
8:53 am 08:53 Sunny 56 13.3 46 7.8 70 70 VRB 3 6 29.89 1012 10 16.0934 0 0
9:53 am 09:53 Sunny 60 15.6 47 8.3 62 62 VRB 5 7 29.89 1012 10 16.0934 0 0
10:53 am 10:53 Sunny 67 19.4 49 9.4 53 53 Calm 29.87 1012 10 16.0934 0 0
11:53 am 11:53 Sunny 67 19.4 46 7.8 47 47 VRB 6 9 29.87 1012 10 16.0934 0 0
12:53 pm 12:53 Sunny 71 21.7 46 7.8 41 41 SSW 6 9 29.85 1011 10 16.0934 0 0
1:53 pm 13:53 Sunny 71 21.7 46 7.8 41 41 undefined N/A 29.84 1011 10 16.0934 0 0
2:53 pm 14:53 Sunny 72 22.2 46 7.8 40 40 undefined N/A 29.83 1010 10 16.0934 0 0
3:53 pm 15:53 Sunny 74 23.3 46 7.8 37 37 SE 6 9 29.81 1010 10 16.0934 0 0
4:53 pm 16:53 Sunny 75 23.9 44 6.7 33 33 VRB 6 9 29.8 1009 10 16.0934 0 0
5:53 pm 17:53 Sunny 74 23.3 45 7.2 36 36 E 8 13 29.78 1009 10 16.0934 0 0
6:53 pm 18:53 Mostly Sunny 71 21.7 46 7.8 41 41 E 12 19 29.77 1008 10 16.0934 0 0
7:53 pm 19:53 Mostly Sunny 67 19.4 48 8.9 51 51 E 10 17 29.78 1008 10 16.0934 0 0
8:53 pm 20:53 Clear 63 17.2 49 9.4 60 60 E 12 19 29.77 1008 10 16.0934 0 0
9:53 pm 21:53 Clear 59 15 49 9.4 69 69 ENE 12 19 29.79 1009 10 16.0934 0 0
10:53 pm 22:53 Mostly Clear 59 15 51 10.6 75 75 E 15 24 29.78 1009 10 16.0934 0 0
11:53 pm 23:53 Mostly Cloudy 59 15 50 10 72 72 E 15 24 29.78 1009 10 16.0934 0 0

Powered by AerisWeather